This is the latest recevied weather packets stored in our database for station/object NK0Z-13. If no packets are shown the sender has not sent any weather packets the latest 10 day(s).
| Time | Temp. | Humidity | Pressure | Rain* | Wind** | Luminosity | Snow |
|---|---|---|---|---|---|---|---|
| 1777950400 | 22.78° C | 60% | 1004.7 hPa | 0 mm | - | 0 W/m² | - |
| 1777949797 | 22.78° C | 58% | 1004.4 hPa | 0 mm | - | 0 W/m² | - |
| 1777949193 | 22.78° C | 58% | 1004.3 hPa | 0 mm | - | 0 W/m² | - |
| 1777948593 | 23.33° C | 56% | 1004.1 hPa | 0 mm | - | 0 W/m² | - |
| 1777947988 | 22.78° C | 56% | 1004.2 hPa | 0 mm | - | 0 W/m² | - |
| 1777947387 | 23.33° C | 55% | 1003.9 hPa | 0 mm | - | 0 W/m² | - |
| 1777946786 | 23.33° C | 54% | 1003.9 hPa | 0 mm | - | 0 W/m² | - |
| 1777946185 | 23.33° C | 53% | 1003.9 hPa | 0 mm | - | 0 W/m² | - |
| 1777945584 | 23.89° C | 53% | 1003.5 hPa | 0 mm | - | 0 W/m² | - |
| 1777944985 | 23.89° C | 52% | 1003.2 hPa | 0 mm | - | 0 W/m² | - |
| 1777944380 | 24.44° C | 51% | 1003.1 hPa | 0 mm | - | 1 W/m² | - |
| 1777943778 | 25° C | 50% | 1003.2 hPa | 0 mm | - | 3 W/m² | - |
| 1777943176 | 25° C | 49% | 1003 hPa | 0 mm | - | 9 W/m² | - |
| 1777942575 | 25.56° C | 49% | 1003 hPa | 0 mm | - | 12 W/m² | - |
| 1777941975 | 25.56° C | 48% | 1002.9 hPa | 0 mm | - | 21 W/m² | - |
| 1777941375 | 25.56° C | 48% | 1002.9 hPa | 0 mm | - | 38 W/m² | - |
| 1777940774 | 26.11° C | 46% | 1002.7 hPa | 0 mm | - | 42 W/m² | - |
| 1777940169 | 26.67° C | 45% | 1003 hPa | 0 mm | - | 52 W/m² | - |
| 1777939569 | 26.67° C | 44% | 1002.9 hPa | 0 mm | - | 78 W/m² | - |
| 1777938969 | 27.22° C | 43% | 1003.1 hPa | 0 mm | - | 95 W/m² | - |
| 1777938369 | 27.78° C | 41% | 1002.7 hPa | 0 mm | - | 101 W/m² | - |
| 1777937767 | 28.33° C | 40% | 1002.8 hPa | 0 mm | - | 122 W/m² | - |
| 1777937167 | 28.89° C | 39% | 1002.9 hPa | 0 mm | - | 223 W/m² | - |
| 1777936566 | 29.44° C | 35% | 1002.9 hPa | 0 mm | - | 199 W/m² | - |
| 1777935964 | 30° C | 34% | 1002.8 hPa | 0 mm | - | 288 W/m² | - |
* Rain latest hour (hover to see other rain measurements)
** Current wind speed in m/s (hover to see current wind gust speed)